Location: La Fredeussais
(48.1780°N, 1.3980°W)
Time: 09:40:24
(UTC+00:00)

Meteor 1-20 Rocket - Pass Details

Date: 09 May 2021
Orbit: 818 x 893 km, 81.2° (Epoch: 12 June)

Event Time Altitude Azimuth Distance (km) Brightness Sun altitude
Rises 20:22:46 0° 349° (N) 3,447 8.2 -8.1°
Reaches altitude 10° 20:25:14 10° 351° (N) 2,495 7.4 -8.4°
Maximum altitude 20:30:53 76° 77° (ENE) 872 4.2 -9.2°
Drops below altitude 10° 20:36:24 10° 164° (SSE) 2,431 6.1 -9.9°
Enters shadow 20:37:02 - 164° (SSE) 2,673 6.3 -9.9°
